Tracking 35331 objects as of 15-Sep-2026
HD Live streaming from Space Station
objects crossing your sky now

FREGAT DEB


FREGAT DEB is no longer on orbit


NORAD ID: 45964
Int'l Code: 2011-037FV
Launch date: July 18, 2011
Source: Commonwealth of Independent States (former USSR) (CIS)
Launch site: TYURATAM MISSILE AND SPACE COMPLEX (TTMTR)
Decay date: 2024-12-03

Note: This is SATELLITE DEBRIS
Your satellite tracking list
Your tracking list is empty




NASA's NSSDC Master Catalog

Two Line Element Set (TLE):
1 45964U 11037FV  24332.06493101  .04531953  00000-0  65592-1 0  9996
2 45964  51.3022 279.3737 0201839  74.2788 288.0351 15.31662863191593
Source of the keplerian elements: AFSPC